EW7157 Weather Reports


Display with metric or nautical units.
time (UTC)temp
F
wind
direction
speed
MPH
gust
MPH
rain 1hr
in
rain 24hr
in
rain mn
in
humidity
%
barometer
mb
20260507182226 67 135 0.0 1.0 0.00 0.43 0.28 31 1031.1
20260507181228 66 180 0.0 1.0 0.00 0.43 0.28 33 1031.4
20260507180227 65 45 1.0 2.0 0.00 0.43 0.28 31 1031.4
20260507175228 65 62 2.0 3.0 0.00 0.43 0.28 33 1031.5
20260507171329 64 181 0.0 3.0 0.00 0.43 0.28 32 1032.3
20260507170328 64 120 1.0 4.0 0.00 0.43 0.28 34 1032.4
20260507164427 65 66 0.0 1.0 0.00 0.43 0.28 35 1032.6
20260507163429 64 50 3.0 4.0 0.00 0.44 0.28 39 1032.8
20260507162527 62 90 2.0 5.0 0.00 0.44 0.28 37 1032.8
20260507161626 62 90 0.0 3.0 0.00 0.45 0.28 38 1033.0
20260507160629 63 90 3.0 5.0 0.00 0.46 0.28 40 1033.0
20260507155627 62 90 2.0 3.0 0.00 0.48 0.28 42 1033.2
20260507154726 61 139 0.0 1.0 0.00 0.49 0.28 42 1033.2
20260507153729 61 90 2.0 3.0 0.00 0.50 0.28 40 1033.3
20260507152729 62 90 0.0 0.0 0.00 0.52 0.28 45 1033.6
20260507151729 62 90 0.0 0.0 0.00 0.54 0.28 45 1033.7
20260507150729 61 145 1.0 3.0 0.00 0.55 0.28 47 1033.7
20260507145729 60 135 0.0 0.0 0.00 0.56 0.28 49 1034.0
20260507144728 59 135 0.0 0.0 0.00 0.56 0.28 49 1034.1
20260507143729 59 90 1.0 3.0 0.00 0.56 0.28 55 1034.1
20260507141727 58 154 0.0 0.0 0.01 0.56 0.28 59 1034.4
20260507141626 58 135 1.0 4.0 0.01 0.56 0.28 60 1034.4
20260507140628 57 180 0.0 0.0 0.01 0.56 0.28 67 1034.5
20260507135629 55 90 0.0 0.0 0.01 0.56 0.28 73 1034.4
20260507134627 54 135 0.0 1.0 0.01 0.56 0.28 85 1034.6
20260507130628 50 157 0.0 1.0 0.00 0.55 0.28 94 1034.3
20260507130531 50 157 0.0 0.0 0.00 0.55 0.28 94 1034.3
20260507124528 50 135 0.0 1.0 0.00 0.55 0.28 95 1034.4
20260507123428 50 135 0.0 3.0 0.00 0.55 0.28 94 1034.4
20260507123328 50 113 0.0 0.0 0.00 0.55 0.28 94 1034.5
20260507122426 50 112 0.0 0.0 0.00 0.55 0.28 95 1034.2
20260507121430 50 112 0.0 0.0 0.00 0.55 0.28 96 1034.0
20260507120527 50 112 0.0 0.0 0.00 0.55 0.28 96 1034.1
20260507115528 50 112 0.0 0.0 0.00 0.55 0.28 96 1034.2
20260507114627 50 112 0.0 0.0 0.00 0.55 0.28 95 1034.1
20260507113627 50 112 0.0 0.0 0.00 0.55 0.28 96 1034.0
20260507112630 50 135 0.0 0.0 0.00 0.55 0.28 96 1033.9
20260507112528 50 135 0.0 0.0 0.00 0.55 0.28 95 1033.9
20260507112429 50 135 0.0 0.0 0.00 0.55 0.28 95 1033.9
20260507111527 50 135 0.0 0.0 0.00 0.55 0.28 95 1033.8
20260507105527 50 135 0.0 0.0 0.00 0.55 0.28 95 1033.4
20260507104528 49 135 0.0 0.0 0.00 0.55 0.28 95 1033.2
20260507101530 49 135 0.0 0.0 0.00 0.55 0.28 95 1032.9
20260507100628 49 135 0.0 0.0 0.00 0.55 0.28 96 1032.7
20260507095726 49 135 0.0 0.0 0.00 0.55 0.28 95 1032.6
20260507095628 49 135 0.0 0.0 0.00 0.55 0.28 96 1032.7
20260507094645 49 135 0.0 0.0 0.00 0.55 0.28 95 1032.7
20260507093730 48 135 0.0 0.0 0.00 0.55 0.28 96 1032.6
20260507091729 49 135 0.0 0.0 0.00 0.55 0.28 96 1032.4
20260507085728 49 135 0.0 0.0 0.03 0.55 0.28 96 1032.3
20260507084746 49 135 0.0 0.0 0.04 0.55 0.28 95 1032.4
20260507083828 49 135 0.0 0.0 0.06 0.55 0.28 95 1032.2
20260507082827 48 135 0.0 0.0 0.07 0.55 0.28 95 1032.4
20260507080927 49 135 0.0 0.0 0.08 0.53 0.26 94 1032.6
20260507075828 49 135 0.0 0.0 0.08 0.52 0.25 94 1032.4
20260507074828 49 135 0.0 0.0 0.07 0.51 0.24 94 1032.7
20260507073927 49 135 0.0 0.0 0.06 0.49 0.22 95 1033.0
20260507072928 50 135 0.0 0.0 0.07 0.48 0.21 95 1032.9
20260507071928 50 135 0.0 0.0 0.08 0.46 0.19 95 1033.1
20260507070928 50 135 0.0 0.0 0.09 0.45 0.18 95 1033.1
20260507070027 50 135 0.0 0.0 0.10 0.45 0.18 94 1032.9
20260507065030 50 135 0.0 0.0 0.10 0.44 0.17 95 1032.9
20260507064929 50 135 0.0 0.0 0.10 0.44 0.17 95 1032.8
20260507063928 50 90 0.0 0.0 0.09 0.43 0.16 93 1032.7
20260507062928 50 90 0.0 0.0 0.07 0.41 0.14 93 1032.7
20260507062829 50 90 0.0 0.0 0.07 0.41 0.14 93 1032.9
20260507061828 51 90 0.0 0.0 0.10 0.38 0.11 93 1033.0
20260507060829 51 90 0.0 0.0 0.09 0.36 0.09 93 1032.9
20260507055926 51 90 0.0 0.0 0.08 0.35 0.08 92 1033.0
20260507054928 52 90 0.0 0.0 0.07 0.34 0.07 93 1032.4
20260507052028 53 47 1.0 3.0 0.03 0.30 0.01 92 1032.2
20260507051928 53 102 1.0 3.0 0.01 0.28 0.01 92 1032.8
20260507051027 54 157 0.0 0.0 0.00 0.27 0.00 92 1032.4
20260507050029 54 135 0.0 0.0 0.00 0.27 0.00 92 1031.7
20260507045128 55 135 0.0 0.0 0.00 0.27 0.00 91 1031.8
20260507044128 55 135 0.0 0.0 0.00 0.27 0.00 91 1031.7
20260507042229 55 135 0.0 0.0 0.00 0.27 0.00 91 1031.2
20260507041328 56 135 0.0 0.0 0.01 0.27 0.00 92 1031.6
20260507035411 57 135 0.0 0.0 0.01 0.27 0.27 91 1032.1
20260507032411 58 135 0.0 0.0 0.01 0.27 0.27 89 1031.6
20260507031411 61 180 0.0 0.0 0.00 0.26 0.26 89 1031.7
20260507030508 62 80 1.0 2.0 0.03 0.26 0.26 92 1031.2
20260507025511 62 360 0.0 0.0 0.03 0.26 0.26 91 1030.9
20260507025411 62 360 0.0 0.0 0.03 0.26 0.26 91 1030.8
20260507023411 62 360 0.0 0.0 0.12 0.26 0.26 90 1031.2
20260507022412 63 360 0.0 0.0 0.12 0.26 0.26 90 1031.1
20260507022313 63 360 0.0 0.0 0.12 0.26 0.26 91 1031.1
20260507021312 63 360 0.0 0.0 0.12 0.26 0.25 90 1031.2
20260507020410 63 360 0.0 0.0 0.09 0.23 0.23 89 1031.3
20260507014310 64 360 0.0 0.0 0.02 0.16 0.16 86 1031.3
20260507013312 64 360 0.0 0.0 0.00 0.14 0.14 86 1030.9
20260507012310 64 360 0.0 0.0 0.00 0.14 0.14 87 1030.8
20260507011311 64 360 0.0 0.0 0.00 0.14 0.14 86 1030.7
20260507010410 63 360 0.0 0.0 0.00 0.14 0.14 85 1030.8
20260507005411 63 360 0.0 0.0 0.00 0.14 0.14 86 1031.0
20260507004410 64 360 0.0 0.0 0.00 0.14 0.14 84 1030.6
20260507004311 64 360 0.0 0.0 0.00 0.14 0.14 85 1030.5
20260507003312 64 360 0.0 0.0 0.00 0.14 0.14 84 1030.3
20260507002410 65 360 0.0 0.0 0.00 0.14 0.14 84 1030.2
20260507001411 65 360 0.0 0.0 0.00 0.14 0.14 82 1030.0
20260507000412 65 360 0.0 0.0 0.00 0.14 0.14 81 1030.0
20260506235410 65 360 0.0 0.0 0.00 0.14 0.14 82 1029.9
20260506235311 65 360 0.0 0.0 0.00 0.14 0.14 81 1029.9
20260506234311 66 360 0.0 0.0 0.00 0.14 0.14 80 1030.1
20260506233310 66 360 0.0 0.0 0.00 0.14 0.14 81 1030.0
20260506231408 66 337 0.0 0.0 0.00 0.14 0.14 79 1030.0
20260506230411 67 337 0.0 0.0 0.00 0.14 0.14 79 1030.0
20260506223411 67 45 0.0 2.0 0.00 0.14 0.14 77 1029.8
20260506223310 67 131 0.0 0.0 0.00 0.14 0.14 78 1029.8
20260506223210 67 135 0.0 0.0 0.00 0.14 0.14 78 1029.7
20260506222211 67 135 0.0 0.0 0.01 0.14 0.14 78 1029.6
20260506220309 68 45 0.0 0.0 0.01 0.14 0.14 76 1029.8
20260506220211 68 45 0.0 1.0 0.01 0.14 0.14 76 1029.8
20260506215308 68 315 0.0 0.0 0.01 0.14 0.14 77 1029.4
20260506215210 68 282 0.0 1.0 0.01 0.14 0.14 77 1029.5
20260506213311 67 225 0.0 1.0 0.01 0.14 0.14 78 1029.7
20260506211411 66 315 0.0 0.0 0.00 0.13 0.13 79 1029.3
20260506210510 66 55 0.0 3.0 0.00 0.13 0.13 79 1029.4
20260506210411 66 360 0.0 0.0 0.00 0.13 0.13 80 1029.4
20260506205410 66 98 0.0 3.0 0.00 0.13 0.13 81 1029.4
20260506204510 65 281 0.0 1.0 0.00 0.13 0.13 82 1029.4
20260506204410 65 114 1.0 4.0 0.00 0.13 0.13 82 1029.4
20260506203411 65 180 0.0 0.0 0.00 0.13 0.13 84 1029.2
20260506202510 64 360 0.0 0.0 0.00 0.13 0.13 84 1029.3
20260506202412 64 360 0.0 1.0 0.00 0.13 0.13 84 1029.3
20260506201509 64 316 0.0 3.0 0.00 0.13 0.13 84 1029.4
20260506200509 64 180 0.0 0.0 0.00 0.13 0.13 85 1029.4
20260506195511 63 337 0.0 2.0 0.00 0.13 0.13 86 1029.5
20260506194511 63 67 0.0 0.0 0.00 0.13 0.13 88 1029.7
20260506194409 63 67 0.0 0.0 0.00 0.13 0.13 88 1029.7
20260506193410 62 67 0.0 0.0 0.00 0.13 0.13 88 1029.7
20260506192410 62 202 0.0 0.0 0.00 0.13 0.13 89 1029.9
20260506191410 62 57 0.0 2.0 0.00 0.13 0.13 90 1030.1
20260506190410 62 67 0.0 0.0 0.00 0.13 0.13 90 1030.2
20260506185409 62 45 0.0 2.0 0.00 0.13 0.13 90 1030.1
20260506183509 61 184 0.0 6.0 0.00 0.13 0.13 90 1030.3
20260506183412 61 157 0.0 0.0 0.00 0.13 0.13 91 1030.3
20260506182411 61 67 0.0 0.0 0.00 0.13 0.13 91 1030.4